Location: Baggettsville
(36.4767°N, 86.7303°W)
Time: 14:52:51
(UTC+00:00)

Daily predictions for brighter satellites

Satellite Brightness Start Highest point End
(mag) Time Altitude Azimuth Time Altitude Azimuth Time Altitude Azimuth
Cosmos 2219 3.7 23:13:41 10° N 23:19:07 41° ENE 23:24:30 10° SE
Cosmos 1939 Rocket 3.9 23:19:07 10° SE 23:22:21 25° ENE 23:25:35 10° NNE
Cosmos 1892 4.0 23:19:40 10° NNE 23:22:39 21° ENE 23:25:36 10° SE
Cosmos 1656 3.7 23:18:16 10° SSW 23:23:47 79° ESE 23:29:25 10° NNE
Cosmos 968 Rocket 4.3 23:21:31 10° N 23:26:00 28° ENE 23:30:25 10° SE
Cosmos 1300 3.3 23:23:44 10° SSW 23:27:29 61° W 23:31:16 10° N
OAO 3 Rocket 4.3 23:23:36 10° W 23:28:09 42° SSW 23:32:38 10° SE
Aureole 3 Rocket 3.1 23:24:34 10° S 23:28:18 63° E 23:33:24 10° NNE
NOAA 12 4.2 23:23:34 10° SSE 23:28:51 86° WSW 23:34:12 10° NNW
CZ-4B R/B 1.4 23:25:48 10° N 23:28:57 76° WNW 23:32:01 10° SSW
SAR-Lupe-4 3.6 23:26:08 10° NNE 23:29:39 55° E 23:33:09 10° S
NOSS 3-3 (A) 3.9 23:24:11 10° SSW 23:29:43 61° ESE 23:35:51 10° NE
NOSS 3-3 (C) 3.9 23:24:19 10° SSW 23:29:50 60° ESE 23:35:58 10° NE
Cosmos 1400 Rocket 2.8 23:27:41 10° S 23:31:48 86° E 23:35:53 10° N
CZ-4B R/B 3.7 23:28:02 10° S 23:33:36 67° WSW 23:39:07 10° NNW
Feng Yun 1-1 Rocket 4.5 23:29:27 10° SSE 23:35:10 55° ENE 23:40:57 10° N
Cosmos 2369 4.1 23:31:20 10° S 23:36:41 43° ESE 23:42:03 10° NE
H-2A R/B 4.4 23:33:33 10° NNW 23:36:50 23° WNW 23:40:05 10° WSW
IRS-1C Rocket 4.4 23:32:17 10° SE 23:37:13 43° ENE 23:42:11 10° N
Cosmos 1825 4.0 23:35:48 10° NE 23:37:06 12° ENE 23:37:06 12° ENE
GPS 2-04 Rocket1 3.3 23:34:02 10° WSW 23:37:52 47° SSE 23:41:13 14° E
ERS-2 3.1 23:34:52 10° N 23:38:25 50° WNW 23:41:57 10° SSW
COSMO-SKYMED 1 2.6 23:35:13 10° NNE 23:39:29 57° E 23:43:45 10° S
Helios 1A Rocket 3.8 23:37:32 10° SE 23:41:02 27° ENE 23:44:30 10° NNE
OAO 2 Rocket 3.4 23:37:53 10° W 23:42:55 74° S 23:46:58 15° E
Cosmos 1244 Rocket 4.5 23:38:54 10° N 23:45:08 79° E 23:51:26 10° S
CZ-2D R/B 3.9 23:41:56 10° SE 23:45:20 32° ENE 23:48:45 10° N
ATLAS 2AS CENTAUR R/B 4.4 23:41:53 10° N 23:45:36 14° NNE 23:48:38 11° NE
YAOGAN 1 3.6 23:43:39 10° ESE 23:47:04 23° ENE 23:50:30 10° NNE
SAR-Lupe-1 4.0 23:43:54 10° NNE 23:47:29 88° W 23:51:00 10° SSW
Cosmos 1340 2.5 23:44:49 10° N 23:48:36 72° E 23:52:21 10° SSE
Cosmos 2227 Rocket 2.3 23:44:15 10° NNW 23:49:48 56° ENE 23:55:20 10° SE
CZ-4 R/B 2.2 23:47:46 10° SE 23:51:04 27° ENE 23:54:22 10° NNE
Cosmos 1812 Rocket 4.2 23:48:59 10° SSE 23:52:55 33° E 23:56:51 10° NNE
Okean O Rocket 3.3 23:51:00 10° SSW 23:55:02 37° W 23:59:04 10° NNW
SL-4 R/B 4.1 23:57:22 10° N 23:58:12 11° NNE 23:58:53 10° NNE
